EHI
0 0 0 0 0 0 0 0 0 0 0 0 0 0 0 0 0 0 2 6 12 16 15 16 20 22 20 14 7 4 2 1 1 2 3 2 1 1 2 3 3 2 1 0 0 0 0 0 1
0 0 0 0 0 0 0 0 0 0 0 0 0 1 1 0 0 0 2 7 13 15 15 16 20 22 21 15 8 4 2 1 0 1 2 2 1 1 3 3 3 3 1 0 0 0 0 0 1
0 0 0 0 0 0 0 0 0 0 0 0 1 2 2 1 0 1 5 10 14 14 13 16 21 23 21 15 9 5 3 1 1 1 2 2 1 2 3 3 3 3 2 1 0 0 0 0 1
0 0 0 0 0 0 0 0 0 0 0 1 2 3 2 2 3 7 10 13 15 14 13 16 22 23 19 14 10 6 4 3 3 3 3 3 3 3 3 3 3 3 2 1 0 1 1 1 2
0 0 0 0 0 0 0 0 0 0 1 2 3 3 2 4 10 14 14 15 16 15 13 15 21 21 16 12 10 7 6 6 5 5 5 5 5 4 3 3 3 4 3 2 2 3 3 3 4
0 0 0 0 0 0 0 0 0 1 2 3 4 4 4 8 15 19 16 15 15 14 12 13 16 16 14 12 10 9 8 7 6 5 4 5 6 5 4 4 5 5 5 5 5 6 6 7 7
0 0 0 0 0 0 0 0 0 1 2 3 4 5 7 11 17 20 18 15 14 12 11 11 12 12 12 13 13 12 10 8 6 5 3 3 5 5 5 6 7 7 6 6 6 7 8 8 9
0 0 0 0 0 0 0 0 0 0 1 2 3 5 8 14 19 22 19 15 13 12 11 12 12 11 10 11 13 14 12 10 7 4 2 2 3 4 5 7 8 7 6 6 6 6 7 8 8
0 0 0 0 0 0 0 0 0 1 2 2 3 5 10 16 23 25 22 17 14 13 13 13 13 12 11 10 11 12 11 9 5 3 1 1 1 1 3 5 7 6 5 5 5 6 8 8 7
0 0 0 0 0 0 0 0 1 3 5 5 5 8 13 17 23 26 24 20 17 14 13 13 13 12 11 9 9 9 8 5 2 1 0 0 0 0 1 2 4 5 5 5 5 5 7 7 5
0 0 0 0 0 0 0 0 1 3 4 6 9 12 13 15 19 23 23 21 17 14 13 13 12 11 9 8 6 5 5 4 2 0 0 0 0 0 0 0 2 3 3 3 3 3 3 2 1
0 0 0 0 0 0 0 0 1 2 3 5 10 12 11 11 13 17 20 20 18 16 14 13 13 11 10 9 6 4 4 5 4 1 0 0 0 0 0 0 0 1 2 1 1 1 0 0 0
0 0 0 0 0 0 0 0 0 2 4 7 11 11 9 9 11 16 20 20 20 19 18 17 17 15 13 10 7 6 6 5 4 3 2 2 1 1 1 1 0 1 2 1 1 2 1 1 1
0 0 0 0 0 1 0 0 1 3 6 11 13 12 11 12 15 21 25 26 25 24 24 25 25 21 16 11 7 6 6 5 4 3 4 5 4 4 3 2 1 1 1 2 3 3 3 2 2
1 1 0 0 0 0 0 0 1 4 8 12 15 15 16 16 20 27 32 33 32 31 31 34 33 27 20 14 10 8 6 5 4 4 5 7 8 6 5 5 3 2 2 3 4 4 3 2 2
0 0 0 0 0 0 0 0 2 4 7 11 14 16 17 18 22 28 34 36 37 37 36 36 35 32 26 20 15 11 8 7 6 5 6 8 8 7 6 6 6 5 5 5 5 4 3 1 1
0 0 0 0 0 0 0 1 2 4 7 9 12 14 16 16 20 26 32 37 38 37 36 34 33 32 28 23 19 14 10 7 6 6 7 7 7 6 6 6 6 6 6 6 5 4 3 1 1
0 0 0 0 0 1 1 1 3 4 6 8 12 15 15 16 19 25 33 37 38 36 34 33 31 29 28 24 20 16 10 6 5 7 7 6 5 5 7 7 7 6 4 3 3 3 2 1 0
0 0 0 0 1 1 1 2 3 4 6 10 15 17 16 16 19 26 32 35 35 34 33 32 31 29 26 24 21 18 12 7 6 7 7 6 5 7 8 9 8 6 4 3 2 1 1 0 0
0 0 1 1 2 2 3 3 4 4 7 12 17 19 19 19 21 25 29 31 31 31 32 32 32 29 26 25 23 20 15 10 8 7 7 7 8 10 10 10 9 8 6 5 4 2 2 1 1
0 0 1 1 3 3 3 3 3 4 7 12 17 22 24 23 23 25 26 27 28 30 33 35 35 32 29 28 28 25 20 14 10 8 8 9 11 12 11 10 9 8 8 7 5 4 4 3 2
0 0 0 1 2 2 2 2 2 2 5 9 14 21 24 23 22 22 22 22 25 29 35 39 38 35 32 32 33 30 23 17 12 9 9 9 11 11 11 9 8 7 6 5 4 4 4 4 3
0 0 0 1 1 1 0 0 0 0 3 7 12 17 19 18 18 18 19 20 22 28 34 38 38 36 34 34 36 32 23 17 14 12 11 9 9 10 11 10 8 6 4 4 3 3 3 3 3
0 0 0 0 0 0 0 0 0 0 1 5 11 15 15 15 17 19 20 22 24 27 32 35 36 35 34 36 37 33 25 19 19 18 15 12 10 11 12 11 7 5 4 4 3 3 3 3 3
0 0 0 0 0 0 0 0 0 0 1 5 11 15 16 17 19 22 24 26 27 28 31 34 34 34 35 37 37 34 28 23 22 21 18 15 13 12 11 9 5 4 4 4 4 3 3 3 3
0 0 0 0 0 0 0 0 0 1 3 7 13 16 18 20 24 26 27 28 29 29 30 31 31 31 34 36 35 32 28 24 20 19 17 14 12 10 8 6 4 4 4 4 3 3 3 3 3
0 0 0 0 0 0 0 0 1 3 6 10 14 16 19 23 26 28 29 29 29 28 26 26 26 26 29 31 32 31 28 23 19 17 15 12 9 7 6 5 4 3 4 4 3 3 3 3 3
0 0 0 0 0 0 0 0 1 5 8 11 13 16 20 24 26 28 29 28 27 25 24 24 24 23 24 25 28 28 25 20 17 16 15 12 8 7 7 6 4 4 5 5 4 3 3 3 3
0 0 0 0 0 0 0 0 1 4 8 9 11 14 19 24 27 27 26 26 26 24 23 23 24 23 21 21 23 22 19 15 13 14 14 12 9 8 7 5 4 4 5 5 4 3 2 2 1
0 0 0 0 0 0 0 0 1 4 6 8 10 13 17 24 27 26 24 24 25 23 22 22 24 23 20 20 20 18 15 12 11 11 13 13 11 9 7 5 4 4 3 4 4 2 1 1 0
Wind_Speed
3 2 2 2 4 5 2 2 2 5 5 7 10 11 9 7 5 5 3 12 13 10 8 9 11 11 10 10 9 8 8 8 8 8 9 8 8 8 8 8 8 7 7 7 7 6 6 6 6
2 1 2 4 5 3 2 1 4 6 7 10 11 11 9 7 7 9 6 11 13 11 7 9 11 11 11 10 9 8 8 8 8 8 8 8 8 7 7 7 7 7 6 7 7 6 6 6 5
2 1 3 4 2 3 3 1 5 5 6 7 7 6 6 6 8 7 9 15 12 9 7 9 13 12 11 10 9 8 8 8 7 7 7 7 7 6 6 6 6 6 6 6 6 5 5 5 4
1 3 4 4 1 4 4 3 3 6 6 7 9 7 5 5 6 9 14 15 12 9 7 9 13 12 11 10 9 8 8 8 7 7 6 6 5 5 5 5 5 5 5 4 4 4 4 3 3
3 4 5 2 2 2 2 3 3 6 4 7 10 7 4 3 13 16 15 14 13 9 6 8 12 12 11 10 9 8 8 7 6 6 5 5 4 4 4 4 4 4 4 3 3 3 3 3 3
3 4 3 1 3 2 1 1 5 7 9 9 10 7 3 7 14 14 13 12 12 11 8 7 11 12 11 10 9 8 7 6 6 5 4 4 4 3 3 3 3 2 2 2 2 2 3 3 3
3 3 1 2 2 3 1 1 5 6 7 7 9 7 5 7 11 13 12 11 10 10 8 5 6 7 9 9 8 8 7 6 5 5 4 4 4 3 3 2 2 2 1 1 1 1 2 2 3
4 3 0 1 1 3 3 1 3 7 6 8 7 9 7 9 10 12 11 10 9 7 6 5 4 4 4 5 8 7 6 6 5 5 4 4 4 3 3 2 2 1 1 0 0 1 2 2 2
3 4 2 3 3 3 2 3 1 3 7 4 3 6 11 13 13 13 10 8 7 7 5 5 5 4 4 4 6 6 6 5 4 3 4 4 1 1 2 2 2 2 2 1 1 1 1 1 1
4 3 6 5 4 3 2 4 2 4 6 6 6 7 12 13 14 14 12 11 9 8 6 5 5 5 4 4 3 2 2 2 2 1 2 1 1 1 1 2 3 2 2 2 2 2 2 1 1
3 5 5 4 4 4 2 3 2 6 4 7 11 13 12 12 12 12 12 11 10 9 7 6 6 5 4 2 3 1 1 1 1 1 1 1 1 0 0 0 1 1 1 1 2 1 1 1 1
1 5 4 3 3 3 3 2 3 4 6 10 15 15 13 11 11 11 11 11 9 9 8 6 6 5 4 3 3 2 2 1 1 1 2 1 1 0 0 0 0 0 0 1 1 0 0 0 0
2 4 4 3 2 2 2 3 4 3 6 9 11 13 11 10 8 8 10 10 9 9 8 8 7 6 5 4 3 3 2 2 2 1 1 2 1 1 1 0 0 0 0 0 1 0 0 0 0
3 3 4 2 1 1 3 2 4 4 9 10 10 9 10 10 9 8 8 8 8 8 8 7 7 7 6 4 3 3 3 2 2 1 1 2 2 2 1 1 0 0 0 0 0 0 0 0 1
2 3 6 4 2 1 3 2 3 8 10 10 9 8 8 7 8 9 10 9 9 8 8 8 7 6 6 5 4 3 3 3 2 1 2 2 2 2 2 1 1 0 0 0 1 1 1 1 1
5 3 2 6 2 2 4 3 5 8 12 10 8 8 7 6 7 8 9 8 8 8 7 7 7 7 6 5 4 3 3 3 2 1 1 2 2 2 2 2 0 0 1 1 1 1 1 1 1
4 1 4 6 3 1 4 5 6 6 12 9 8 8 8 6 5 5 8 9 9 9 8 6 5 6 5 5 4 3 3 2 2 2 1 1 2 2 2 1 0 1 1 1 1 1 1 1 1
4 2 3 5 5 0 1 4 5 5 10 10 9 8 8 8 7 7 8 9 8 8 7 6 5 5 5 4 3 2 2 1 1 1 2 2 1 2 2 1 1 2 2 2 1 1 1 1 0
4 2 4 7 5 1 3 4 6 5 6 7 8 9 9 9 6 6 7 8 7 6 6 6 6 5 4 3 3 2 1 1 1 1 2 2 2 2 2 1 1 1 1 1 1 1 1 1 1
3 3 5 6 4 1 2 3 4 3 6 8 10 9 9 7 6 5 5 6 6 7 6 6 6 5 4 3 3 2 2 1 1 1 1 1 2 2 2 2 1 1 1 2 2 2 1 1 2
6 6 6 5 4 3 3 4 3 2 2 4 6 8 8 10 10 9 8 7 7 7 7 7 6 5 4 4 3 2 2 1 1 1 0 0 1 2 2 2 2 1 2 1 1 1 2 1 2
7 9 8 5 1 2 2 2 6 2 2 3 5 7 9 9 9 8 8 7 7 7 6 6 6 6 5 5 4 5 3 2 2 2 1 0 1 1 2 2 2 1 1 1 1 1 1 2 1
9 9 6 4 3 0 1 2 7 1 3 5 5 7 9 9 10 9 8 8 6 6 6 5 5 5 4 5 5 4 3 2 1 1 2 1 0 1 1 2 2 2 2 2 2 2 1 1 1
6 0 3 4 4 1 4 3 6 4 7 6 5 6 6 8 8 8 7 7 6 6 5 5 6 5 4 5 4 5 4 3 3 2 2 1 0 1 1 2 1 1 2 1 1 1 1 1 1
4 5 3 4 3 5 3 3 7 7 6 7 8 7 6 7 8 8 8 7 7 6 6 5 6 5 5 5 4 4 4 4 4 3 3 2 1 1 0 1 1 1 1 1 1 1 0 1 1
5 10 9 5 5 5 1 4 6 4 3 4 6 6 5 6 7 8 7 7 8 8 7 6 6 5 4 4 4 4 4 3 2 3 3 3 2 2 1 1 1 1 1 1 1 1 0 1 1
4 3 8 8 2 1 3 3 4 2 1 3 4 5 6 7 8 8 7 6 7 8 7 7 6 4 4 4 3 3 3 3 3 3 2 2 2 2 2 2 1 1 1 1 1 1 0 1 0
6 7 6 6 4 2 3 3 4 4 3 3 4 5 6 7 7 7 7 6 6 6 6 6 6 6 4 4 3 3 3 3 3 3 2 2 1 1 2 2 1 1 1 1 1 1 0 1 0
1 3 5 5 6 5 3 6 6 8 7 6 5 6 7 8 8 7 6 6 6 6 5 5 5 5 4 3 3 4 3 3 3 3 2 2 2 2 2 2 1 1 1 1 1 1 1 1 0
5 5 7 5 3 4 4 7 4 5 5 6 6 5 6 7 7 7 6 5 5 6 5 5 5 5 4 3 3 4 3 3 2 2 2 2 2 2 2 2 1 1 1 2 2 1 1 1 1
Wind_Direction
234 209 142 77 51 44 3 305 69 66 54 67 81 87 86 73 111 140 149 141 139 143 148 137 131 127 123 118 114 110 106 102 98 93 89 86 84 85 85 85 83 85 86 88 89 88 89 86 81
212 174 66 56 73 56 303 263 82 90 121 107 86 84 79 72 91 116 126 145 141 142 145 137 134 130 127 123 120 118 113 109 105 101 97 92 88 86 87 89 87 88 89 90 89 86 85 79 69
226 164 81 66 90 165 213 166 113 104 112 104 94 68 75 106 114 133 149 146 139 139 141 142 138 134 131 129 127 124 120 117 112 108 104 100 95 91 90 92 91 87 88 88 86 83 81 74 66
77 49 49 67 210 221 191 200 126 110 82 83 96 73 65 104 126 136 141 143 137 141 144 146 142 139 137 135 134 132 127 126 121 117 114 111 105 100 95 91 92 87 84 83 81 75 75 74 66
72 71 45 20 276 251 203 197 161 116 101 95 94 93 73 75 120 133 141 142 140 142 146 148 146 145 143 141 140 139 135 133 130 125 124 120 114 107 107 103 102 94 89 84 78 65 68 59 52
58 69 62 327 301 306 291 150 113 99 114 113 107 110 111 132 133 144 143 142 143 145 147 149 151 151 151 149 147 145 143 141 135 129 128 132 132 124 117 122 124 108 90 79 78 65 60 42 38
112 97 159 242 299 318 294 122 125 128 134 139 130 112 136 155 150 147 141 137 138 141 144 149 157 157 158 158 155 153 152 149 140 134 131 139 149 147 139 141 150 139 108 81 87 57 47 29 29
144 101 4 233 254 264 243 90 133 131 130 133 128 132 164 176 150 136 130 129 133 137 143 147 150 150 158 164 163 163 163 156 150 148 145 143 141 152 163 166 179 189 204 176 164 356 18 20 31
109 83 226 210 195 237 216 105 77 76 107 117 108 142 161 153 137 131 127 126 135 141 150 150 150 153 160 168 166 165 167 161 156 160 158 151 153 173 184 192 201 219 235 240 240 284 339 352 2
109 159 228 206 189 213 205 137 131 73 92 88 87 104 137 140 139 141 145 149 153 157 166 162 158 159 160 171 152 159 153 152 148 151 153 150 170 205 193 226 220 229 241 263 258 270 306 331 357
172 202 230 236 205 198 191 145 114 117 125 151 144 144 149 145 148 151 156 159 162 161 162 165 165 164 166 161 146 159 149 143 151 166 159 147 146 177 223 229 257 258 259 281 295 302 326 336 348
250 258 225 231 224 188 193 143 91 132 173 166 153 153 155 155 159 159 158 161 159 158 164 167 164 160 163 149 152 156 156 149 158 175 158 137 131 118 167 174 244 264 280 274 268 277 332 331 334
257 266 270 242 258 187 115 112 116 142 136 136 143 147 155 159 161 155 153 151 151 158 164 166 162 158 155 146 155 148 155 162 173 167 153 143 137 144 158 196 138 282 263 303 342 358 4 13 82
256 290 298 287 298 185 133 135 107 158 139 140 148 154 159 161 157 144 143 143 151 157 159 158 159 159 151 153 156 151 159 159 155 159 163 157 147 144 133 114 87 330 260 210 164 88 60 70 94
336 348 329 299 269 226 94 31 165 170 147 151 161 160 157 156 156 157 160 153 156 155 151 153 156 151 149 151 151 144 153 143 142 164 167 157 144 139 131 125 126 270 275 123 92 64 69 66 54
3 19 310 288 265 254 115 234 235 165 151 163 165 161 156 158 168 165 159 149 151 148 146 154 154 150 151 147 140 138 137 130 135 150 151 148 138 130 122 118 136 306 58 73 85 71 66 49 42
3 328 277 295 285 231 143 211 228 169 155 162 164 165 158 157 163 164 160 155 154 154 151 150 145 149 148 142 132 124 119 120 131 135 133 135 133 123 123 117 100 46 59 59 72 78 97 79 32
238 257 286 269 284 70 186 216 224 188 165 169 164 161 160 167 180 174 158 156 154 152 148 148 141 146 143 131 114 103 94 97 114 135 151 146 136 121 112 106 59 59 63 45 48 72 67 86 47
206 231 262 269 271 171 210 224 233 200 173 171 166 164 167 174 182 173 159 153 151 148 145 151 146 153 141 135 141 139 152 145 118 152 148 146 143 128 120 103 86 73 83 75 63 75 55 22 38
220 248 276 287 297 137 200 248 249 205 192 183 172 172 170 162 156 160 154 152 157 156 154 151 155 155 154 154 154 154 151 156 163 143 106 135 137 142 136 127 123 105 98 70 60 78 70 16 30
247 220 231 236 314 11 61 338 280 264 199 181 171 168 165 169 167 168 164 165 157 163 166 162 161 155 157 149 126 110 84 57 59 61 111 118 136 125 123 132 126 100 103 103 86 91 104 74 7
246 233 214 212 143 294 102 264 282 244 270 206 175 172 180 178 170 169 167 170 165 168 164 156 157 158 159 151 146 145 156 171 192 185 170 143 120 124 122 123 116 102 90 82 60 76 91 104 50
223 230 215 207 161 291 358 133 281 280 228 239 201 185 185 178 169 165 168 170 160 151 146 151 148 153 158 158 158 154 156 174 163 140 133 139 87 110 122 113 102 99 95 87 74 70 70 88 111
215 272 32 45 76 267 237 170 268 237 211 207 197 179 171 164 164 163 164 151 145 139 144 149 151 162 167 162 159 159 159 153 140 141 145 142 92 60 82 100 97 111 108 111 110 112 109 110 105
139 106 49 9 15 249 235 179 245 240 201 183 183 185 173 161 156 152 152 153 154 153 154 149 153 161 165 162 166 168 164 152 153 161 163 152 134 111 163 110 109 112 123 126 114 101 80 107 110
186 143 155 180 210 269 295 211 251 246 196 174 170 166 159 158 156 155 157 160 164 160 158 151 157 160 160 164 173 170 158 150 157 167 158 156 161 173 163 127 124 124 111 112 111 98 103 65 66
160 165 164 139 171 228 271 274 311 341 134 139 141 147 164 165 157 155 150 153 157 158 160 158 156 149 155 160 159 159 157 154 154 151 145 155 164 155 145 139 138 138 125 132 130 118 186 97 77
163 154 101 114 150 238 268 244 228 226 199 160 156 156 168 158 151 150 153 157 155 154 158 155 153 153 151 152 149 144 151 157 158 147 151 155 161 154 141 141 151 147 150 157 133 134 147 100 13
117 109 114 127 151 163 228 261 224 200 189 170 165 159 159 158 158 157 158 161 153 144 141 144 146 141 142 146 138 146 156 154 148 153 165 170 169 161 156 161 159 163 161 150 133 160 149 132 18
167 168 144 149 209 170 175 258 267 179 172 154 149 155 159 157 157 153 157 154 147 145 144 141 147 150 155 147 137 146 152 150 152 160 168 159 165 172 161 149 152 171 168 161 162 191 176 168 183